Waarnemingen

Advertentie
Mijn weer
Kuggören, Zweden (2355): temperatuur & dauwpunt: 20.05.2020 21:00:00 - 26.05.2020 21:00:00 (CEST)Kuggören, Zweden (2355): windsnelheid & windstoten: 20.05.2020 21:00:00 - 26.05.2020 21:00:00 (CEST)Kuggören, Zweden (2355): windrichting: 20.05.2020 21:00:00 - 26.05.2020 21:00:00 (CEST)Kuggören, Zweden (2355): luchtdruk: 20.05.2020 21:00:00 - 26.05.2020 21:00:00 (CEST)Kuggören, Zweden (2355): zicht: 20.05.2020 21:00:00 - 26.05.2020 21:00:00 (CEST)Kuggören, Zweden (2355): neerslag: 20.05.2020 21:00:00 - 26.05.2020 21:00:00 (CEST)
Datum & Tijd tt [°C] td [°C] ff [km/u] ff [kn] fx [km/u] fx [kn] dd ppp [hPa] vv [km] rr [mm]
26.05.2020 21:00:00 10,8 5,5 20 11 37 20 Z 1026,2 49 0,0
26.05.2020 20:00:00 11,4 4,8 24 13 35 19 Z 1026,6 50 0,0
26.05.2020 19:00:00 10,6 4,5 23 12 37 20 Z 1027,3 40 0,0
26.05.2020 18:00:00 10,7 4,4 24 13 37 20 Z 1028,0 44 0,0
26.05.2020 17:00:00 12,2 5,1 22 12 29 16 Z 1028,7 38 0,0
26.05.2020 16:00:00 12,1 5,0 22 12 30 16 Z 1029,1 38 0,0
26.05.2020 15:00:00 12,7 5,8 21 11 29 16 Z 1029,7 31 0,0
26.05.2020 14:00:00 12,2 6,3 22 12 30 16 Z 1030,4 27 0,0
26.05.2020 13:00:00 11,9 6,6 19 11 24 13 Z 1031,0 31 0,0
26.05.2020 12:00:00 11,3 7,2 20 11 25 14 Z 1031,6 25 0,0
26.05.2020 11:00:00 11,8 7,3 20 11 26 14 Z 1031,9 24 0,0
26.05.2020 10:00:00 10,4 7,3 17 9 21 11 Z 1032,1 23 0,0
26.05.2020 09:00:00 10,7 7,7 14 8 19 11 Z 1032,2 20 0,0
26.05.2020 08:00:00 9,2 6,3 3 2 6 3 O 1032,2 22 0,0
26.05.2020 07:00:00 10,1 7,0 3 1 8 4 O 1032,2 25 0,0
26.05.2020 06:00:00 9,3 6,4 0 0 5 3 N 1032,0 22 0,0
26.05.2020 05:00:00 8,4 6,2 2 1 6 3 O 1031,7 26 0,0
26.05.2020 04:00:00 8,1 6,2 0 0 5 3 N 1031,7 33 0,0
26.05.2020 03:00:00 9,1 6,4 0 0 7 4 N 1031,6 38 0,0
26.05.2020 02:00:00 10,2 6,0 0 0 13 7 N 1031,6 41 0,0
26.05.2020 01:00:00 10,7 6,1 8 4 11 6 W 1031,5 50 0,0
26.05.2020 00:00:00 10,3 6,6 4 2 10 5 WZW 1031,4 47 0,0
25.05.2020 23:00:00 8,9 6,3 0 0 6 4 N 1031,2 37 0,0
25.05.2020 22:00:00 10,4 7,5 0 0 4 2 N 1030,8 34 0,0
25.05.2020 21:00:00 11,6 6,9 0 0 6 3 N 1030,4 44 0,0
25.05.2020 20:00:00 11,8 7,3 2 1 14 8 WZW 1030,0 39 0,0
25.05.2020 19:00:00 9,4 6,8 11 6 21 11 Z 1029,6 29 0,0
25.05.2020 18:00:00 9,1 6,5 15 8 20 11 Z 1029,3 24 0,0
25.05.2020 17:00:00 9,6 6,5 10 6 22 12 Z 1029,1 27 0,0
25.05.2020 16:00:00 - - - - 22 12 - - - -
25.05.2020 15:00:00 10,0 6,2 15 8 18 10 Z 1028,7 25 0,0
25.05.2020 14:00:00 9,4 6,3 12 7 16 9 ZZO 1028,5 27 0,0
25.05.2020 13:00:00 9,3 5,8 11 6 15 8 ZO 1028,2 23 0,0
25.05.2020 12:00:00 8,8 5,7 11 6 18 10 Z 1027,6 22 0,0
25.05.2020 11:00:00 10,5 6,4 10 6 16 9 N 1027,3 21 0,0
25.05.2020 10:00:00 9,3 5,7 13 7 19 11 NNW 1027,1 36 0,0
25.05.2020 09:00:00 7,1 6,0 16 9 19 10 NNW 1026,5 19 0,0
25.05.2020 08:00:00 7,1 6,8 15 8 19 11 NNW 1025,9 12 0,0
25.05.2020 07:00:00 6,5 6,4 10 5 14 8 NW 1025,0 0,9 0,0
25.05.2020 06:00:00 6,0 5,9 8 4 10 5 NNW 1024,1 0,7 0,0
25.05.2020 05:00:00 5,6 5,5 4 2 11 6 N 1023,3 0,2 0,0
25.05.2020 04:00:00 5,5 5,4 11 6 16 9 NNO 1022,5 0,2 0,0
25.05.2020 03:00:00 5,1 5,0 10 5 16 9 NO 1021,6 - 0,0
25.05.2020 02:00:00 4,9 4,8 15 8 18 10 NO 1020,8 0,5 0,0
25.05.2020 01:00:00 4,7 4,6 8 4 21 11 N 1020,1 0,3 0,0
25.05.2020 00:00:00 4,7 4,4 16 9 23 13 ONO 1019,3 0,4 0,0
24.05.2020 23:00:00 6,4 5,7 13 7 18 10 NNO 1018,7 - 0,0
24.05.2020 22:00:00 6,3 5,3 12 6 17 9 NNO 1018,1 20 0,0
24.05.2020 21:00:00 7,1 5,7 10 5 12 6 NNO 1017,3 16 0,0
24.05.2020 20:00:00 7,2 5,7 4 2 11 6 NNO 1016,6 14 0,0
24.05.2020 19:00:00 8,1 5,6 10 5 12 6 NO 1015,9 20 0,0
24.05.2020 18:00:00 8,3 5,9 5 3 11 6 OZO 1015,4 14 0,0
24.05.2020 17:00:00 8,2 6,0 8 5 14 8 ZZO 1015,0 17 0,0
24.05.2020 16:00:00 8,2 6,2 10 5 17 9 Z 1014,7 18 0,0
24.05.2020 15:00:00 8,1 5,9 13 7 19 10 Z 1014,3 17 0,0
24.05.2020 14:00:00 8,5 5,4 16 9 20 11 ZZO 1014,0 21 0,0
24.05.2020 13:00:00 8,2 5,8 16 9 21 11 ZO 1013,7 14 0,0
24.05.2020 12:00:00 7,9 6,0 13 7 17 9 ZZO 1013,1 12 0,0
24.05.2020 11:00:00 7,2 6,0 16 9 22 12 ZZO 1013,0 - 0,0
24.05.2020 10:00:00 6,6 6,2 15 8 18 10 Z 1012,6 5 0,0
24.05.2020 09:00:00 6,1 6,0 11 6 17 9 ZZO 1012,3 1,9 0,0
24.05.2020 08:00:00 6,1 6,0 13 7 19 10 Z 1012,3 1,1 0,0
24.05.2020 07:00:00 6,1 6,0 11 6 16 9 Z 1012,0 4,1 0,0
24.05.2020 06:00:00 5,9 5,8 10 5 14 8 Z 1011,9 4,1 0,0
24.05.2020 05:00:00 5,7 5,6 9 5 13 7 Z 1011,8 - 0,0
24.05.2020 04:00:00 5,8 5,7 10 6 13 7 Z 1011,8 0,8 0,0
24.05.2020 03:00:00 5,7 5,6 9 5 16 9 Z 1011,8 0,4 0,0
24.05.2020 02:00:00 5,6 5,2 12 7 31 17 Z 1012,2 4,5 0,0
24.05.2020 01:00:00 5,8 5,5 28 15 36 20 ZZO 1012,6 9 0,0
24.05.2020 00:00:00 5,8 5,2 32 17 38 21 ZO 1012,9 11 0,0
23.05.2020 23:00:00 6,0 5,2 34 19 42 23 ZZO 1013,2 2,7 0,0
23.05.2020 22:00:00 6,2 4,7 34 18 46 25 ZO 1013,7 19 0,0
23.05.2020 21:00:00 6,0 4,6 34 19 42 23 ZZO 1013,9 17 0,2
23.05.2020 20:00:00 6,0 4,6 37 20 51 27 ZZO 1014,1 16 0,0
23.05.2020 19:00:00 6,2 4,8 26 14 36 20 Z 1014,7 24 0,2
23.05.2020 18:00:00 6,4 5,0 30 16 40 22 Z 1015,1 11 0,3
23.05.2020 17:00:00 6,6 5,1 34 18 49 27 Z 1015,4 8 0,7
23.05.2020 16:00:00 7,2 4,8 28 15 44 24 Z 1015,5 12 0,6
23.05.2020 15:00:00 7,0 4,8 18 10 49 26 Z 1016,0 13 0,4
23.05.2020 14:00:00 8,5 4,1 37 20 47 25 ZZO 1015,6 18 0,0
23.05.2020 13:00:00 8,9 3,7 37 20 45 24 ZZO 1015,6 42 0,0
23.05.2020 12:00:00 7,7 4,8 31 17 46 25 ZZO 1016,4 30 0,1
23.05.2020 11:00:00 7,4 4,5 18 10 27 14 Z 1016,9 29 0,0
23.05.2020 10:00:00 7,6 4,7 17 9 29 16 Z 1016,7 36 0,0
23.05.2020 09:00:00 7,3 4,4 23 12 31 17 Z 1016,6 33 0,0
23.05.2020 08:00:00 7,1 4,6 18 10 27 15 Z 1016,7 39 0,0
23.05.2020 07:00:00 7,1 4,4 23 13 30 16 Z 1016,8 40 0,0
23.05.2020 06:00:00 7,1 4,1 26 14 34 18 Z 1017,1 38 0,0
23.05.2020 05:00:00 7,4 3,4 26 14 32 17 Z 1017,4 46 0,0
23.05.2020 04:00:00 7,6 3,3 19 10 26 14 Z 1017,9 43 0,0
23.05.2020 03:00:00 7,8 3,3 19 11 29 15 Z 1018,3 48 0,0
23.05.2020 02:00:00 8,1 3,6 21 11 32 18 Z 1018,8 45 0,0
23.05.2020 01:00:00 8,4 3,4 21 12 32 18 Z 1019,1 42 0,0
23.05.2020 00:00:00 8,7 3,5 22 12 33 18 Z 1019,4 38 0,0
22.05.2020 23:00:00 8,6 3,8 23 12 42 23 Z 1019,7 50 0,0
22.05.2020 22:00:00 8,8 3,0 26 14 32 18 ZZO 1019,9 47 0,0
22.05.2020 21:00:00 8,7 3,1 18 10 23 12 Z 1020,7 48 0,0
22.05.2020 20:00:00 8,8 3,6 14 8 20 11 Z 1021,2 50 0,0
22.05.2020 19:00:00 9,1 4,1 16 9 19 11 Z 1021,9 41 0,0
22.05.2020 18:00:00 8,8 5,4 11 6 15 8 ZZO 1022,8 36 0,0
22.05.2020 17:00:00 9,1 5,1 11 6 14 7 ZZO 1023,5 33 0,0
22.05.2020 16:00:00 8,5 4,7 10 5 13 7 ZZO 1024,3 34 0,0
22.05.2020 15:00:00 9,6 4,6 10 6 13 7 ZO 1025,1 30 0,0
22.05.2020 14:00:00 8,8 3,6 11 6 13 7 ZO 1025,6 39 0,0
22.05.2020 13:00:00 8,8 3,6 8 4 10 5 OZO 1026,0 30 0,0
22.05.2020 12:00:00 8,8 4,0 7 4 10 6 O 1026,3 26 0,0
22.05.2020 11:00:00 7,9 4,1 7 4 9 5 ONO 1026,4 29 0,0
22.05.2020 10:00:00 8,4 4,0 5 3 11 6 NO 1026,5 31 0,0
22.05.2020 09:00:00 8,9 4,1 9 5 12 7 NO 1026,5 33 0,0
22.05.2020 08:00:00 8,5 4,1 10 5 13 7 NO 1026,6 35 0,0
22.05.2020 07:00:00 7,7 3,4 8 4 11 6 NNO 1026,7 44 0,0
22.05.2020 06:00:00 6,3 3,8 5 3 7 4 NNW 1026,7 50 0,0
22.05.2020 05:00:00 4,5 1,9 6 3 7 4 NNW 1026,8 50 0,0
22.05.2020 04:00:00 3,2 -0,1 3 1 4 2 N 1026,9 50 0,0
22.05.2020 03:00:00 4,1 0,3 5 3 9 5 NW 1026,6 50 0,0
22.05.2020 02:00:00 3,6 -1,8 5 3 9 5 NNW 1026,4 50 0,0
22.05.2020 01:00:00 4,1 -0,5 8 4 9 5 NW 1026,2 50 0,0
22.05.2020 00:00:00 4,1 -0,1 0 0 3 2 N 1026,3 50 0,0
21.05.2020 23:00:00 5,0 0,2 0 0 3 2 N 1026,4 50 0,0
21.05.2020 22:00:00 6,4 -2,0 4 2 8 4 Z 1026,1 50 0,0
21.05.2020 21:00:00 7,6 -0,1 6 3 13 7 Z 1025,8 50 0,0
21.05.2020 20:00:00 7,8 3,1 8 4 13 7 Z 1025,6 49 0,0
21.05.2020 19:00:00 8,1 3,4 11 6 14 8 ZZO 1025,5 50 0,0
21.05.2020 18:00:00 8,6 4,8 9 5 16 9 ZZO 1025,6 47 0,0
21.05.2020 17:00:00 8,6 4,0 14 8 16 9 Z 1025,6 42 0,0
21.05.2020 16:00:00 8,8 3,6 14 8 17 9 ZZO 1025,6 37 0,0
21.05.2020 15:00:00 8,7 3,9 13 7 16 9 ZZO 1025,9 30 0,0
21.05.2020 14:00:00 8,5 3,9 11 6 14 8 ZZO 1025,7 36 0,0
21.05.2020 13:00:00 7,6 4,5 12 7 15 8 ZZO 1025,7 37 0,0
21.05.2020 12:00:00 7,8 4,2 8 5 12 7 ZO 1026,0 26 0,0
21.05.2020 11:00:00 7,9 3,7 8 4 14 8 O 1026,1 35 0,0
21.05.2020 10:00:00 7,5 1,3 10 6 13 7 ONO 1026,0 46 0,0
21.05.2020 09:00:00 8,0 -1,0 11 6 15 8 NNW 1025,7 43 0,0
21.05.2020 08:00:00 7,3 -2,2 11 6 15 8 NNW 1025,5 41 0,0
21.05.2020 07:00:00 6,9 -1,0 10 6 16 9 NNW 1025,4 48 0,0
21.05.2020 06:00:00 6,0 0,9 10 5 18 10 NW 1025,1 50 0,0
21.05.2020 05:00:00 4,7 -0,5 11 6 16 9 NW 1025,1 50 0,0
21.05.2020 04:00:00 2,3 -0,3 7 4 11 6 NW 1025,0 50 0,0
21.05.2020 03:00:00 2,9 -0,2 3 1 4 2 WNW 1024,7 50 0,0
21.05.2020 02:00:00 3,6 -0,1 3 1 6 3 N 1024,6 50 0,0
21.05.2020 01:00:00 5,9 0,8 3 2 16 8 OZO 1024,5 50 0,0
21.05.2020 00:00:00 6,4 2,1 8 4 12 7 ZO 1024,4 50 0,0
20.05.2020 23:00:00 5,9 -0,4 7 4 11 6 Z 1024,2 50 0,0
20.05.2020 22:00:00 7,2 -2,8 7 4 14 7 ZZW 1024,1 50 0,0
20.05.2020 21:00:00 7,5 0,5 8 5 16 9 Z 1023,9 50 0,0

tt = temperatuur
td = dauwpunt
ff = windsnelheid
fx = windstoten
dd = windrichting
ppp = luchtdruk
vv = zicht
rr = neerslag

Weerstations in de omgeving